Location: ??
(35.4032°N, 139.3073°E)
Time: 13:00:54
(UTC+00:00)

H-2A R/B - Pass Details

Date: 13 April 2024
Orbit: 732 x 832 km, 98.2° (Epoch: 26 May)

Event Time Altitude Azimuth Distance (km) Brightness Sun altitude
Rises 18:43:37 0° 19° (NNE) 3,196 5.9 -17.8°
Reaches altitude 10° 18:45:58 10° 25° (NNE) 2,280 5.2 -17.4°
Maximum altitude 18:50:49 49° 100° (E) 987 2.9 -16.5°
Drops below altitude 10° 18:55:46 10° 174° (S) 2,326 4.3 -15.5°
Sets 18:58:11 0° 180° (S) 3,266 5.0 -15.1°
